Jordan, MT

7:39 AM MDT on March 30, 2017 (GMT -0600)
Jordan

Weather History for KJDN - September, 2012

Change the Weather History Date:

Monday, September 17, 2012

  Actual Average Record
Temperature  
Mean Temperature 58 °F 56 °F  
Max Temperature 70 °F 72 °F 94 °F (1943)
Min Temperature 46 °F 41 °F 22 °F (1965)
Degree Days  
Heating Degree Days 7 9  
Month to date heating degree days 76 107  
Since 1 July heating degree days 108 172  
Cooling Degree Days 0 1  
Month to date cooling degree days 30 24  
Year to date cooling degree days 728 417  
Growing Degree Days 8 (Base 50)    
Moisture  
Dew Point 30 °F    
Average Humidity 35    
Maximum Humidity 46    
Minimum Humidity 23    
Precipitation  
Precipitation 0.00 in 0.04 in 0.69 in (2010)
Month to date precipitation 0.03 0.65  
Year to date precipitation 5.75 10.57  
Snow  
Snow 0.00 in - - ()
Month to date snowfall 0.0  
Since 1 July snowfall 0.0  
Since 1 September snowfall 0.0  
Snow Depth 0.00 in    
Sea Level Pressure  
Sea Level Pressure 30.15 in    
Wind  
Wind Speed 3 mph (ESE)    
Max Wind Speed 12 mph    
Max Gust Speed 18 mph    
T = Trace of Precipitation, MM = Missing Value Source: NWS Daily Summary

Daily Weather History Graph

Daily Weather History Graph

Search for Another Location

Airport or City:

Trip Planner

Search our weather history database for the weather conditions in past years. The results will help you decide how hot, cold, wet, or windy it might be!

Date:

Astronomy

Sep. 17, 2012 Rise Set
Actual Time 6:48 AM MDT 7:14 PM MDT
Civil Twilight 6:17 AM MDT 7:45 PM MDT
Nautical Twilight 5:41 AM MDT 8:21 PM MDT
Astronomical Twilight 5:03 AM MDT 8:59 PM MDT
Moon 8:53 AM MDT (9/17) 7:44 PM MDT (9/17)
Length of Visible Light 13h 27m
Length of Day
12h 25m
Waxing Crescent, 4% of the Moon is Illuminated
Sep 17
Waxing Crescent
Sep 22
First Quarter
Sep 29
Full
Oct 8
Last Quarter
Oct 15
New

Hourly Weather History & Observations

Time (MDT) Temp. Dew Point Humidity Pressure Visibility Wind Dir Wind Speed Gust Speed Precip Events Conditions
12:48 AM 55.0 °F 32.0 °F 42% 30.23 in - NNE 6.9 mph - N/A   Unknown
1:48 AM 54.0 °F 32.0 °F 43% 30.24 in - ENE 4.6 mph - N/A   Unknown
2:48 AM 53.1 °F 28.9 °F 40% 30.23 in - ENE 3.5 mph - N/A   Unknown
3:48 AM 52.0 °F 28.9 °F 41% 30.23 in - NNE 5.8 mph - N/A   Unknown
4:48 AM 50.0 °F 30.0 °F 46% 30.24 in - Calm Calm - N/A   Unknown
5:48 AM 48.9 °F 28.9 °F 46% 30.23 in - Calm Calm - N/A   Unknown
6:48 AM 46.0 °F 28.9 °F 51% 30.24 in - Calm Calm - N/A   Unknown
7:48 AM 48.9 °F 30.0 °F 48% 30.24 in - Calm Calm - N/A   Unknown
8:48 AM 51.1 °F 30.0 °F 44% 30.25 in - East 5.8 mph - N/A   Unknown
9:48 AM 54.0 °F 30.9 °F 41% 30.24 in - SE 5.8 mph - N/A   Unknown
10:48 AM 57.9 °F 27.0 °F 31% 30.22 in - Variable 4.6 mph - N/A   Unknown
11:48 AM 61.0 °F 27.0 °F 27% 30.19 in - Variable 5.8 mph - N/A   Unknown
12:48 PM 64.9 °F 28.9 °F 26% 30.17 in - Variable 5.8 mph - N/A   Unknown
1:48 PM 66.0 °F 30.0 °F 26% 30.13 in - SW 6.9 mph - N/A   Unknown
2:48 PM 69.1 °F 30.9 °F 24% 30.10 in - Variable 3.5 mph - N/A   Unknown
3:48 PM 69.1 °F 30.9 °F 24% 30.08 in - Variable 4.6 mph - N/A   Unknown
4:48 PM 69.1 °F 30.9 °F 24% 30.06 in - WSW 8.1 mph - N/A   Unknown
5:48 PM 68.0 °F 30.9 °F 25% 30.05 in - WSW 3.5 mph - N/A   Unknown
6:48 PM 66.9 °F 30.9 °F 26% 30.04 in - South 3.5 mph - N/A   Unknown
7:48 PM 59.0 °F 30.0 °F 33% 30.04 in - Calm Calm - N/A   Unknown
8:48 PM 57.0 °F 30.0 °F 36% 30.04 in - Calm Calm - N/A   Unknown
9:48 PM 54.0 °F 30.0 °F 40% 30.04 in - Calm Calm - N/A   Unknown
10:48 PM 53.1 °F 30.0 °F 41% 30.02 in - Calm Calm - N/A   Unknown
11:00 PM - - N/A% - - North - - N/A   Unknown
11:48 PM 51.1 °F 28.9 °F 43% 30.01 in - Calm Calm - N/A   Unknown